Regional Weather Roundup
Issued by NWS

Home | Current Version | Previous Version | Graphics & Text | Print | Product List | Glossary On
Versions: 1 2 3 4 5 6 7 8 9 10 11 12 13 14 15 16 17 18 19 20 21 22 23 24 25 26 27 28 29 30 31 32 33 34 35 36 37 38 39 40 41 42 43 44 45 46 47 48 49 50
000
ASUS43 KBIS 190010
RWRND

NORTH DAKOTA REGIONAL WEATHER ROUNDUP
NATIONAL WEATHER SERVICE BISMARCK ND
700 PM CDT MON SEP 18 2017

NOTE: "FAIR" INDICATES FEW OR NO CLOUDS BELOW 12,000 FEET WITH NO
SIGNIFICANT WEATHER AND/OR OBSTRUCTIONS TO VISIBILITY.


NDZ001>003-009>011-017-190100-
NORTHWEST NORTH DAKOTA

CITY           SKY/WX    TMP DP  RH WIND       PRES   REMARKS
WILLISTON      PTCLDY    70  46  42 SE7       29.67F
6HR MIN TEMP:  68; 6HR MAX TEMP:  76;

MINOT          CLEAR     66  49  54 E10       29.75F
MINOT AFB      CLEAR     67  47  49 SE10      29.74S
$$

NDZ018>021-031>035-040>046-190100-
SOUTHWEST NORTH DAKOTA

CITY           SKY/WX    TMP DP  RH WIND       PRES   REMARKS
BISMARCK       CLOUDY    65  54  67 E7        29.78F
6HR MIN TEMP:  64; 6HR MAX TEMP:  74;

DICKINSON      CLOUDY    69  44  40 SE10      29.71F
GARRISON         N/A     65  51  60 E6        29.75F
6HR MIN TEMP:  64; 6HR MAX TEMP:  71;

HETTINGER ARPT CLOUDY    71  38  29 SE10      29.75F
$$

NDZ004>008-012>016-024-026-027-054-190100-
NORTHEAST NORTH DAKOTA

CITY           SKY/WX    TMP DP  RH WIND       PRES   REMARKS
GRAND FORKS    PTCLDY    66  58  75 S16       29.81R
GRND FRKS AFB  MOCLDY    66  57  72 S10       29.82R
DEVILS LAKE    CLEAR     63  53  70 SE5       29.82R
$$

NDZ022-023-025-028>030-036>039-047>053-190100-
SOUTHEAST NORTH DAKOTA

CITY           SKY/WX    TMP DP  RH WIND       PRES   REMARKS
FARGO          MOCLDY    63  57  81 SE13      29.83S
6HR MIN TEMP:  64; 6HR MAX TEMP:  73;

JAMESTOWN      CLEAR     69  49  48 SW3       29.79S
$$





USA.gov is the U.S. government's official web portal to all federal, state and local government web resources and services.